Probability
0 0 0 0 0 0 0 0 0 0 0 0 0 0 0 0 0 0 0 0 0 0 0 0 0 0 0 0 0 0 0 0 0 0 0 0 0 1 1 1 0 0 0 0
0 0 0 0 0 0 0 0 0 0 0 0 0 0 0 0 0 0 0 0 0 0 0 0 0 0 0 0 0 0 0 0 0 0 0 0 0 0 0 0 0 0 0 0
0 0 0 0 0 0 0 0 0 0 0 0 0 0 0 0 0 0 0 0 0 0 0 0 0 0 0 0 0 0 0 0 0 0 0 0 0 0 0 0 0 0 0 0
0 0 0 0 0 0 0 0 0 0 0 0 0 0 0 0 0 0 0 0 0 0 1 1 1 0 0 0 0 0 0 0 0 0 0 0 0 0 0 0 0 0 0 0
0 0 0 0 0 0 0 0 0 0 0 0 0 0 0 0 0 0 0 0 0 0 1 1 1 0 0 0 0 0 0 0 0 0 1 1 1 0 0 0 0 0 0 0
0 0 0 0 0 0 0 0 0 0 0 0 0 0 0 0 0 0 0 0 0 0 0 0 0 0 0 0 0 0 0 0 0 0 1 2 1 0 0 0 0 0 0 0
0 0 0 0 0 0 0 0 0 0 0 0 0 0 0 0 0 0 0 0 0 0 0 0 0 0 0 0 0 0 0 0 0 0 1 2 1 0 0 0 0 0 0 0
0 0 0 0 0 0 0 0 0 0 0 0 0 0 0 0 0 0 0 0 0 0 0 0 0 0 0 0 0 0 0 0 0 0 2 3 2 1 1 0 0 0 0 0
0 0 0 0 0 0 0 0 0 0 0 0 0 0 0 0 0 0 0 0 0 0 0 0 0 0 0 0 0 0 0 0 0 0 1 2 2 1 1 1 1 0 0 0
0 0 0 0 0 0 0 0 0 0 0 0 0 0 0 0 0 0 0 0 0 0 0 0 0 0 0 0 0 0 0 0 0 0 1 1 1 1 1 1 1 0 0 0
0 0 0 0 0 0 0 0 0 0 0 0 0 0 0 0 0 0 0 0 0 0 0 0 0 0 0 0 0 0 0 0 0 0 0 0 0 0 0 1 1 0 0 0
0 0 0 0 0 0 0 0 0 0 0 0 0 0 0 0 0 0 0 0 0 0 0 0 0 0 0 0 0 0 0 0 0 0 0 0 0 0 0 0 0 0 0 0
0 0 0 0 0 0 0 0 0 0 0 0 0 0 0 0 0 0 0 0 0 0 0 0 0 0 0 0 0 0 0 0 0 0 0 0 0 0 0 0 0 0 0 0
0 0 0 0 0 0 0 0 0 0 0 0 0 0 0 0 0 0 0 0 0 0 0 0 0 0 0 0 0 0 0 0 0 0 0 0 0 0 0 0 0 0 0 0
0 0 0 0 0 0 0 0 0 0 0 0 0 0 0 0 0 0 0 0 0 0 0 0 0 0 0 0 0 0 0 0 0 0 0 0 0 0 0 0 0 0 0 0
0 0 0 0 0 0 0 0 0 0 0 0 0 0 0 0 0 0 0 0 0 0 0 0 0 0 0 0 0 0 0 0 0 0 0 0 0 0 0 0 0 0 0 0
0 0 0 0 0 0 0 0 0 0 0 0 0 0 0 0 0 0 0 0 0 0 0 0 0 0 0 0 0 0 0 0 0 0 0 0 0 0 0 0 0 0 0 0
0 0 0 0 0 0 0 0 0 0 0 0 0 0 0 0 0 0 0 0 0 0 0 0 0 0 0 0 0 0 0 0 0 0 0 0 0 0 0 0 0 0 0 0
0 0 0 0 0 0 0 0 0 0 0 0 0 0 0 0 0 0 0 0 0 0 0 0 0 0 0 0 0 0 0 0 0 0 0 0 0 0 0 0 0 0 0 0
0 0 0 0 0 0 0 0 0 0 0 0 0 0 0 0 0 0 0 0 0 0 0 0 0 0 0 0 0 0 0 0 0 0 0 0 0 0 0 0 0 0 0 0
0 0 0 0 0 0 0 0 0 0 0 0 0 0 0 0 0 0 0 0 0 0 0 0 0 0 0 0 0 0 0 0 0 0 0 0 0 0 0 0 0 0 0 0
0 0 0 0 0 0 0 0 0 0 0 0 0 0 0 0 0 0 0 0 0 0 0 0 0 0 0 0 0 0 0 0 0 0 0 0 0 0 0 0 0 0 0 0
0 0 0 0 0 0 0 0 0 0 0 0 0 0 0 0 0 0 0 0 0 0 0 0 0 0 0 0 0 0 0 0 0 0 0 0 0 0 0 0 0 0 0 0
0 0 0 0 0 0 0 0 0 0 0 0 0 0 0 0 0 0 0 0 0 0 0 0 0 0 0 0 0 0 0 0 0 0 0 0 0 0 0 0 0 0 0 0
0 0 0 0 0 0 0 0 0 0 0 0 0 0 0 0 0 0 0 0 0 0 0 0 0 0 0 0 0 0 0 0 0 0 0 0 0 0 0 0 0 0 0 0
0 0 0 0 0 0 0 0 0 0 0 0 0 0 0 0 0 0 0 0 0 0 0 0 0 0 0 0 0 0 0 0 0 0 0 0 0 0 0 0 0 0 0 0
Wind_Speed
1 3 5 7 7 5 3 5 6 5 2 5 9 12 12 9 9 10 9 8 8 7 5 4 5 5 5 5 5 5 4 4 4 3 3 2 2 1 1 1 1 2 2 2
3 5 5 3 4 4 5 7 7 4 2 5 8 13 12 10 11 11 11 10 9 7 5 5 5 5 5 5 5 5 4 4 4 3 3 2 2 1 1 1 1 2 2 2
5 1 2 4 5 5 7 8 8 6 5 4 8 11 9 8 8 8 9 9 8 7 7 6 5 5 5 5 5 4 4 4 4 4 3 2 2 1 1 1 1 1 2 2
3 2 2 4 5 6 7 5 6 5 5 4 4 8 6 5 6 8 8 8 8 7 7 6 6 5 5 5 4 4 4 4 4 4 4 5 4 3 2 2 1 1 1 2
3 2 3 5 4 5 3 0 3 4 5 6 5 8 8 3 7 8 7 7 7 6 7 6 5 5 4 4 4 3 3 3 3 4 4 4 4 3 2 2 2 2 1 1
1 1 2 2 1 3 3 2 0 2 3 7 6 8 9 4 6 5 5 5 5 4 4 4 4 3 3 3 3 3 3 3 3 3 3 4 4 3 3 3 3 2 1 1
1 1 0 0 2 3 3 3 2 3 4 6 1 7 9 3 3 4 4 3 3 3 3 3 4 4 3 3 3 3 3 3 3 3 3 3 3 4 4 3 3 2 2 2
3 3 2 2 2 3 5 4 4 4 5 4 3 9 5 2 2 3 3 3 2 2 3 3 3 3 4 3 3 3 3 3 3 3 3 2 2 2 2 2 2 2 2 2
5 3 1 1 1 2 4 5 2 2 2 5 7 7 7 4 4 3 3 2 3 3 3 3 3 3 3 3 3 3 3 3 3 3 3 2 2 2 2 2 2 1 2 1
3 3 1 1 1 0 2 2 3 4 4 7 7 7 5 4 5 3 2 3 3 3 2 3 3 3 3 3 3 3 3 3 3 3 2 2 2 2 1 2 2 1 1 1
2 3 1 2 5 4 3 3 3 3 4 5 7 6 2 4 3 3 4 3 3 3 3 3 3 3 3 2 2 2 3 3 2 2 2 2 1 1 1 1 2 1 1 2
2 2 3 4 1 2 3 4 5 4 5 5 6 7 1 2 2 3 4 3 3 3 3 3 3 3 3 3 2 3 3 3 3 3 2 2 1 1 1 1 1 1 2 2
4 3 1 2 3 2 3 3 3 2 2 5 8 8 1 2 4 4 4 4 3 3 3 2 2 3 3 3 3 3 3 3 3 2 2 2 2 2 2 2 1 2 2 2
3 4 6 7 3 3 5 6 6 6 6 8 12 13 10 8 8 7 6 5 4 4 3 3 3 3 3 3 3 3 3 3 3 3 3 2 2 2 2 2 1 2 2 2
3 4 5 7 6 5 7 10 10 11 12 12 13 14 15 11 10 8 6 5 5 5 4 4 4 4 4 3 3 3 4 3 3 3 3 3 2 2 1 1 1 1 1 2
3 4 3 5 4 5 9 13 14 15 14 16 16 18 12 11 8 8 7 5 6 6 6 5 4 4 4 4 4 4 4 3 3 3 3 2 2 2 2 1 1 1 1 2
6 5 4 5 2 4 11 13 14 11 12 12 16 15 8 8 8 8 7 6 7 7 6 5 5 4 4 4 4 4 4 3 3 3 3 2 2 2 2 1 1 1 2 2
7 6 3 2 1 11 7 3 9 11 12 12 11 10 9 9 8 6 6 7 7 6 5 5 4 4 4 3 3 3 3 3 3 3 2 2 2 2 2 1 2 2 2 2
7 7 4 4 6 11 8 4 6 8 10 11 13 12 9 6 6 6 5 6 7 6 5 4 4 3 2 2 2 2 3 3 3 3 3 3 3 2 2 2 2 2 2 2
4 5 5 5 7 10 6 3 3 3 8 6 10 11 8 3 6 5 1 3 4 3 2 2 1 1 1 1 1 2 2 2 2 2 2 2 2 2 3 3 2 2 2 2
6 7 9 9 10 11 5 4 6 6 6 2 7 8 7 7 7 4 2 2 2 2 1 1 1 1 1 1 2 2 2 2 2 1 1 1 2 2 2 2 2 2 1 2
12 10 10 8 10 12 6 9 10 6 1 2 4 6 6 6 4 3 3 2 2 1 1 1 0 1 0 1 2 2 2 1 0 1 1 1 1 1 1 1 1 1 1 2
11 11 8 12 11 2 9 9 6 2 4 4 4 4 5 5 5 5 4 3 2 2 1 1 1 1 0 0 1 2 2 0 1 1 1 1 1 1 1 2 2 1 2 2
8 4 6 8 10 7 8 7 6 5 6 5 4 4 5 6 5 5 4 3 3 2 2 1 1 2 1 1 1 1 1 1 2 2 1 1 1 1 1 1 2 2 2 2
8 8 7 10 8 5 8 10 9 7 5 5 4 5 5 5 5 5 5 4 3 2 2 2 2 3 2 1 1 1 1 2 2 2 2 1 1 1 1 2 2 3 3 3
8 10 11 11 8 8 6 5 7 7 7 7 6 5 5 5 6 5 4 4 3 3 2 2 2 2 2 2 2 1 1 2 2 2 2 2 1 1 1 1 2 3 4 5
Wind_Direction
121 185 209 211 218 244 217 227 251 268 277 262 259 266 268 263 248 248 246 240 236 237 232 212 200 191 186 185 184 179 177 176 175 174 183 184 181 182 176 170 183 186 177 184
166 228 242 234 210 214 223 237 257 275 269 275 278 273 268 254 245 246 247 241 239 238 223 212 204 192 192 189 189 187 187 186 189 192 186 183 175 181 187 172 182 188 179 182
201 185 199 189 198 216 235 242 251 266 296 264 283 273 250 240 237 244 245 246 245 238 227 215 205 204 200 197 198 198 194 193 195 190 172 152 149 144 163 188 202 208 202 193
229 244 199 205 220 226 246 245 244 252 262 270 273 285 265 245 245 242 241 240 241 239 232 222 212 206 206 205 199 200 196 193 191 187 181 179 187 192 195 199 202 206 209 201
211 201 210 225 236 217 236 202 233 248 252 270 242 259 274 235 252 248 240 239 238 237 229 222 216 209 205 200 194 193 186 186 188 190 187 190 196 195 177 180 184 187 190 201
249 254 274 265 322 191 150 128 180 224 235 254 235 236 271 230 245 252 239 237 237 236 228 221 213 205 197 192 186 184 178 176 180 190 191 194 192 186 180 190 189 187 193 203
257 208 168 139 127 144 182 186 218 222 225 245 184 239 259 273 264 268 262 250 242 232 224 220 214 205 200 196 193 190 186 183 180 183 188 197 201 198 199 202 203 197 203 219
220 234 195 196 205 198 205 217 222 242 249 267 229 242 260 290 298 297 290 284 258 231 222 222 221 214 206 200 199 196 196 190 187 193 198 196 196 199 208 219 218 216 220 220
213 236 32 329 304 208 186 213 268 261 290 270 249 258 275 254 276 276 276 275 252 235 228 227 223 218 210 203 202 200 200 194 192 195 192 188 195 200 205 219 220 223 235 229
200 233 269 314 203 295 274 175 182 207 238 256 262 260 263 248 248 255 262 262 255 247 241 235 226 220 220 210 198 194 197 201 197 197 192 188 190 193 210 214 221 233 243 244
191 194 221 201 211 206 173 188 215 216 249 255 268 264 266 246 237 253 269 267 260 250 242 228 220 218 215 206 191 188 192 196 195 194 186 181 183 187 199 212 221 232 242 235
184 193 232 233 217 318 230 213 195 219 235 245 266 274 60 261 292 285 284 285 277 271 255 233 221 212 209 205 199 197 194 198 202 195 184 184 180 180 200 222 232 234 242 244
161 166 216 232 193 186 232 229 224 242 235 233 245 263 92 309 304 296 292 294 287 281 275 257 230 221 215 214 213 210 203 202 199 187 181 179 182 192 214 229 237 237 237 244
155 189 220 239 261 196 231 238 223 209 228 242 246 267 280 286 292 294 292 288 285 274 261 254 250 242 232 222 218 217 212 204 193 185 188 191 200 206 217 225 230 238 240 242
171 220 238 266 279 258 250 245 227 225 235 244 258 262 274 282 285 285 285 280 273 262 255 249 251 252 244 235 227 221 213 206 192 189 196 206 211 208 206 214 230 250 256 258
180 207 217 260 264 262 266 255 240 240 244 249 263 269 274 283 280 277 271 261 262 261 256 253 253 252 245 238 232 226 214 205 195 195 201 199 195 198 206 222 229 247 267 273
179 171 199 250 292 289 260 238 222 223 226 230 245 258 278 278 269 269 264 254 256 261 260 255 252 249 245 240 228 227 216 198 194 199 199 197 197 200 211 231 231 243 255 266
177 176 198 239 190 240 247 195 212 227 238 232 246 260 263 265 275 274 263 256 255 255 256 255 257 259 259 251 232 224 202 193 196 199 201 205 202 206 208 212 232 247 248 252
200 186 189 198 237 265 276 228 193 215 249 229 236 252 267 289 289 258 248 253 254 251 250 251 250 254 255 246 223 201 190 190 196 206 213 214 202 199 206 217 234 247 251 259
192 199 201 202 229 244 249 154 160 186 260 222 217 239 253 250 265 269 271 265 262 262 261 261 254 237 223 230 191 186 192 193 209 224 233 229 208 201 213 225 235 243 246 256
176 196 212 220 239 257 251 156 158 207 256 198 208 227 228 224 248 309 318 293 280 276 283 269 215 214 221 192 168 182 191 215 232 233 231 223 211 214 220 226 234 232 242 257
184 188 199 200 224 245 172 161 199 232 280 209 223 228 230 240 264 286 288 285 282 287 293 266 212 244 278 174 174 190 218 237 189 178 192 209 216 225 217 214 231 233 229 240
208 203 197 203 223 241 169 198 217 236 239 241 235 232 226 236 248 253 259 260 255 249 262 252 207 212 285 245 200 206 234 185 160 167 187 199 208 219 219 212 218 224 227 240
223 211 213 236 248 239 225 235 242 238 242 249 246 237 225 233 239 241 244 247 241 238 239 217 192 204 235 254 257 240 223 178 175 187 196 191 195 211 225 234 233 233 232 239
206 182 209 239 253 262 246 234 234 235 240 247 252 246 235 231 237 236 238 238 237 241 236 210 208 217 228 230 243 248 203 182 190 193 196 202 206 209 227 247 251 252 254 250
197 196 205 233 221 219 237 214 213 219 229 235 243 252 245 230 235 234 237 234 228 226 223 218 220 222 229 224 235 237 217 197 190 197 202 207 211 217 225 246 281 273 273 283